Time,TemperatureF,DewpointF,PressureIn,WindDirection,WindDirectionDegrees,WindSpeedMPH,WindSpeedGustMPH,Humidity,HourlyPrecipIn,Conditions,Clouds,dailyrainin,SoftwareType,DateUTC
2013-03-29 00:03:00,48.0,38.0,30.33,ENE,58,0.0,1.0,68,0.00,,,0.00,,2013-03-29 05:03:00,
2013-03-29 00:12:00,48.0,38.0,30.33,ENE,58,0.0,1.0,68,0.00,,,0.00,,2013-03-29 05:12:00,
2013-03-29 00:23:00,48.0,36.0,30.32,ENE,58,0.0,1.0,63,0.00,,,0.00,,2013-03-29 05:23:00,
2013-03-29 00:32:00,48.0,36.0,30.32,ENE,58,0.0,1.0,63,0.00,,,0.00,,2013-03-29 05:32:00,
2013-03-29 00:43:00,48.0,36.0,30.32,ENE,58,0.0,1.0,63,0.00,,,0.00,,2013-03-29 05:43:00,
2013-03-29 00:52:00,48.0,36.0,30.32,ENE,58,0.0,1.0,63,0.00,,,0.00,,2013-03-29 05:52:00,
2013-03-29 01:02:00,48.0,34.0,30.32,ENE,76,1.0,5.0,59,0.00,,,0.00,,2013-03-29 06:02:00,
2013-03-29 01:12:00,48.0,34.0,30.32,ENE,76,1.0,5.0,59,0.00,,,0.00,,2013-03-29 06:12:00,
2013-03-29 01:23:00,49.0,35.0,30.32,ESE,109,0.0,2.0,59,0.00,,,0.00,,2013-03-29 06:23:00,
2013-03-29 01:32:00,49.0,36.0,30.31,East,88,1.0,3.0,60,0.00,,,0.00,,2013-03-29 06:32:00,
2013-03-29 01:42:00,49.0,36.0,30.31,East,88,1.0,3.0,60,0.00,,,0.00,,2013-03-29 06:42:00,
2013-03-29 01:52:00,48.0,36.0,30.31,SE,136,0.0,2.0,62,0.00,,,0.00,,2013-03-29 06:52:00,
2013-03-29 02:03:00,48.0,35.0,30.31,East,87,0.0,2.0,60,0.00,,,0.00,,2013-03-29 07:03:00,
2013-03-29 02:12:00,48.0,35.0,30.31,East,87,0.0,2.0,60,0.00,,,0.00,,2013-03-29 07:12:00,
2013-03-29 02:22:00,48.0,37.0,30.33,NNE,29,0.0,2.0,65,0.00,,,0.00,,2013-03-29 07:22:00,
2013-03-29 02:32:00,47.0,38.0,30.32,ENE,74,1.0,2.0,71,0.01,,,0.01,,2013-03-29 07:32:00,
2013-03-29 02:42:00,47.0,38.0,30.32,ENE,74,1.0,2.0,71,0.01,,,0.01,,2013-03-29 07:42:00,
2013-03-29 02:52:00,46.0,38.0,30.32,ENE,74,0.0,1.0,73,0.01,,,0.01,,2013-03-29 07:52:00,
2013-03-29 03:02:00,46.0,38.0,30.32,ENE,74,0.0,1.0,73,0.01,,,0.01,,2013-03-29 08:02:00,
2013-03-29 03:12:00,46.0,38.0,30.32,ENE,74,0.0,1.0,73,0.01,,,0.01,,2013-03-29 08:12:00,
2013-03-29 03:22:00,46.0,38.0,30.32,ENE,74,0.0,1.0,73,0.01,,,0.01,,2013-03-29 08:22:00,
2013-03-29 03:32:00,46.0,38.0,30.32,ENE,57,1.0,4.0,74,0.00,,,0.01,,2013-03-29 08:32:00,
2013-03-29 03:42:00,46.0,38.0,30.32,ENE,57,1.0,4.0,74,0.00,,,0.01,,2013-03-29 08:42:00,
2013-03-29 03:53:00,46.0,37.0,30.31,ENE,74,1.0,3.0,72,0.00,,,0.01,,2013-03-29 08:53:00,
2013-03-29 04:02:00,46.0,37.0,30.31,SE,138,0.0,1.0,70,0.00,,,0.01,,2013-03-29 09:02:00,
2013-03-29 04:13:00,46.0,37.0,30.31,SE,138,0.0,1.0,70,0.00,,,0.01,,2013-03-29 09:13:00,
2013-03-29 04:22:00,46.0,37.0,30.31,NE,42,0.0,2.0,72,0.00,,,0.01,,2013-03-29 09:22:00,
2013-03-29 04:32:00,46.0,37.0,30.32,NE,38,0.0,3.0,72,0.01,,,0.02,,2013-03-29 09:32:00,
2013-03-29 04:42:00,46.0,37.0,30.32,NE,38,0.0,3.0,72,0.01,,,0.02,,2013-03-29 09:42:00,
2013-03-29 04:52:00,46.0,37.0,30.31,East,83,2.0,5.0,71,0.01,,,0.02,,2013-03-29 09:52:00,
2013-03-29 05:02:00,45.0,38.0,30.31,ENE,69,0.0,2.0,75,0.01,,,0.02,,2013-03-29 10:02:00,
2013-03-29 05:12:00,45.0,38.0,30.31,ENE,69,0.0,2.0,75,0.01,,,0.02,,2013-03-29 10:12:00,
2013-03-29 05:22:00,45.0,39.0,30.31,ENE,69,0.0,2.0,79,0.03,,,0.04,,2013-03-29 10:22:00,
2013-03-29 05:33:00,44.0,39.0,30.31,ENE,61,2.0,4.0,82,0.03,,,0.05,,2013-03-29 10:33:00,
2013-03-29 05:42:00,44.0,39.0,30.31,ENE,61,2.0,4.0,82,0.03,,,0.05,,2013-03-29 10:42:00,
2013-03-29 05:53:00,43.0,38.0,30.31,ESE,123,1.0,5.0,83,0.03,,,0.05,,2013-03-29 10:53:00,
2013-03-29 06:03:00,43.0,39.0,30.29,East,85,3.0,7.0,85,0.03,,,0.05,,2013-03-29 11:03:00,
2013-03-29 06:12:00,43.0,39.0,30.29,East,85,3.0,7.0,85,0.03,,,0.05,,2013-03-29 11:12:00,
2013-03-29 06:23:00,43.0,39.0,30.30,East,86,0.0,3.0,86,0.02,,,0.06,,2013-03-29 11:23:00,
2013-03-29 06:32:00,43.0,39.0,30.30,East,86,0.0,3.0,86,0.02,,,0.06,,2013-03-29 11:32:00,
2013-03-29 06:42:00,43.0,39.0,30.30,East,86,0.0,3.0,86,0.02,,,0.06,,2013-03-29 11:42:00,
2013-03-29 06:52:00,44.0,40.0,30.30,East,84,1.0,4.0,86,0.02,,,0.07,,2013-03-29 11:52:00,
2013-03-29 07:02:00,44.0,40.0,30.30,East,81,0.0,3.0,86,0.02,,,0.07,,2013-03-29 12:02:00,
2013-03-29 07:12:00,44.0,40.0,30.30,East,81,0.0,3.0,86,0.02,,,0.07,,2013-03-29 12:12:00,
2013-03-29 07:22:00,45.0,41.0,30.31,SE,138,0.0,1.0,85,0.01,,,0.07,,2013-03-29 12:22:00,
2013-03-29 07:32:00,45.0,41.0,30.31,South,188,1.0,4.0,85,0.02,,,0.08,,2013-03-29 12:32:00,
2013-03-29 07:42:00,45.0,41.0,30.31,South,188,1.0,4.0,85,0.02,,,0.08,,2013-03-29 12:42:00,
2013-03-29 07:53:00,45.0,41.0,30.31,SE,126,1.0,4.0,85,0.01,,,0.08,,2013-03-29 12:53:00,
2013-03-29 08:03:00,45.0,41.0,30.32,South,190,1.0,4.0,86,0.01,,,0.08,,2013-03-29 13:03:00,
2013-03-29 08:12:00,45.0,41.0,30.32,South,190,1.0,4.0,86,0.01,,,0.08,,2013-03-29 13:12:00,
2013-03-29 08:22:00,45.0,41.0,30.32,South,186,1.0,4.0,86,0.01,,,0.08,,2013-03-29 13:22:00,
2013-03-29 08:32:00,45.0,41.0,30.31,SSW,194,1.0,4.0,86,0.00,,,0.08,,2013-03-29 13:32:00,
2013-03-29 08:42:00,45.0,41.0,30.31,SSW,194,1.0,4.0,86,0.00,,,0.08,,2013-03-29 13:42:00,
2013-03-29 08:53:00,45.0,41.0,30.31,SE,146,2.0,5.0,85,0.00,,,0.08,,2013-03-29 13:53:00,
2013-03-29 09:02:00,45.0,41.0,30.31,East,92,1.0,5.0,87,0.00,,,0.08,,2013-03-29 14:02:00,
2013-03-29 09:12:00,45.0,41.0,30.31,East,92,1.0,5.0,87,0.00,,,0.08,,2013-03-29 14:12:00,
2013-03-29 09:22:00,45.0,42.0,30.30,ESE,123,1.0,4.0,88,0.00,,,0.08,,2013-03-29 14:22:00,
2013-03-29 09:32:00,45.0,42.0,30.31,ESE,118,2.0,4.0,88,0.01,,,0.09,,2013-03-29 14:32:00,
2013-03-29 09:42:00,45.0,42.0,30.31,ESE,118,2.0,4.0,88,0.01,,,0.09,,2013-03-29 14:42:00,
2013-03-29 09:53:00,45.0,42.0,30.31,SE,134,0.0,3.0,89,0.01,,,0.09,,2013-03-29 14:53:00,
2013-03-29 10:02:00,45.0,42.0,30.31,South,186,2.0,6.0,89,0.01,,,0.09,,2013-03-29 15:02:00,
2013-03-29 10:12:00,45.0,42.0,30.31,South,186,2.0,6.0,89,0.01,,,0.09,,2013-03-29 15:12:00,
2013-03-29 10:22:00,45.0,42.0,30.31,SE,141,1.0,6.0,90,0.02,,,0.10,,2013-03-29 15:22:00,
2013-03-29 10:33:00,46.0,44.0,30.30,East,81,1.0,5.0,91,0.01,,,0.10,,2013-03-29 15:33:00,
2013-03-29 10:43:00,46.0,44.0,30.30,East,81,1.0,5.0,91,0.01,,,0.10,,2013-03-29 15:43:00,
2013-03-29 10:53:00,46.0,44.0,30.30,SSE,168,1.0,5.0,91,0.01,,,0.10,,2013-03-29 15:53:00,
2013-03-29 11:03:00,46.0,44.0,30.30,ENE,76,1.0,4.0,91,0.01,,,0.10,,2013-03-29 16:03:00,
2013-03-29 11:13:00,46.0,44.0,30.30,ENE,76,1.0,4.0,91,0.01,,,0.10,,2013-03-29 16:13:00,
2013-03-29 11:23:00,47.0,45.0,30.31,SE,131,2.0,5.0,91,0.00,,,0.10,,2013-03-29 16:23:00,
2013-03-29 11:32:00,47.0,45.0,30.30,SE,140,1.0,5.0,91,0.00,,,0.10,,2013-03-29 16:32:00,
2013-03-29 11:42:00,47.0,45.0,30.30,SE,140,1.0,5.0,91,0.00,,,0.10,,2013-03-29 16:42:00,
2013-03-29 11:53:00,47.0,44.0,30.30,ESE,119,2.0,4.0,90,0.00,,,0.10,,2013-03-29 16:53:00,
2013-03-29 12:03:00,47.0,44.0,30.30,SE,128,3.0,6.0,90,0.00,,,0.10,,2013-03-29 17:03:00,
2013-03-29 12:12:00,47.0,44.0,30.30,SE,128,3.0,6.0,90,0.00,,,0.10,,2013-03-29 17:12:00,
2013-03-29 12:22:00,47.0,45.0,30.29,SE,132,2.0,5.0,91,0.00,,,0.10,,2013-03-29 17:22:00,
2013-03-29 12:33:00,48.0,45.0,30.29,SE,139,3.0,6.0,91,0.00,,,0.10,,2013-03-29 17:33:00,
2013-03-29 12:42:00,48.0,45.0,30.29,SE,139,3.0,6.0,91,0.00,,,0.10,,2013-03-29 17:42:00,
2013-03-29 12:53:00,48.0,45.0,30.28,SSE,166,1.0,7.0,90,0.00,,,0.10,,2013-03-29 17:53:00,
2013-03-29 13:02:00,48.0,45.0,30.28,SE,142,2.0,6.0,90,0.00,,,0.10,,2013-03-29 18:02:00,
2013-03-29 13:12:00,48.0,45.0,30.28,SE,142,2.0,6.0,90,0.00,,,0.10,,2013-03-29 18:12:00,
2013-03-29 13:22:00,49.0,46.0,30.28,ESE,123,1.0,5.0,90,0.00,,,0.10,,2013-03-29 18:22:00,
2013-03-29 13:32:00,49.0,46.0,30.28,SSE,155,2.0,6.0,88,0.00,,,0.10,,2013-03-29 18:32:00,
2013-03-29 13:42:00,49.0,46.0,30.28,SSE,155,2.0,6.0,88,0.00,,,0.10,,2013-03-29 18:42:00,
2013-03-29 13:52:00,49.0,46.0,30.28,ESE,123,2.0,6.0,89,0.00,,,0.10,,2013-03-29 18:52:00,
2013-03-29 14:02:00,49.0,46.0,30.28,ESE,123,2.0,6.0,89,0.00,,,0.10,,2013-03-29 19:02:00,
2013-03-29 14:12:00,51.0,47.0,30.26,ESE,123,2.0,5.0,87,0.01,,,0.11,,2013-03-29 19:12:00,
2013-03-29 14:23:00,51.0,47.0,30.26,ESE,123,2.0,5.0,87,0.01,,,0.11,,2013-03-29 19:23:00,
2013-03-29 14:32:00,51.0,47.0,30.26,SE,138,2.0,5.0,86,0.01,,,0.11,,2013-03-29 19:32:00,
2013-03-29 14:43:00,51.0,47.0,30.26,SE,138,2.0,5.0,86,0.01,,,0.11,,2013-03-29 19:43:00,
2013-03-29 14:53:00,51.0,47.0,30.25,SE,133,1.0,5.0,86,0.01,,,0.11,,2013-03-29 19:53:00,
2013-03-29 15:02:00,52.0,48.0,30.25,SE,135,0.0,5.0,86,0.01,,,0.11,,2013-03-29 20:02:00,
2013-03-29 15:12:00,52.0,48.0,30.25,SE,135,0.0,5.0,86,0.01,,,0.11,,2013-03-29 20:12:00,
2013-03-29 15:22:00,53.0,48.0,30.24,ESE,105,1.0,4.0,83,0.00,,,0.11,,2013-03-29 20:22:00,
2013-03-29 15:33:00,53.0,48.0,30.24,East,86,0.0,2.0,83,0.00,,,0.11,,2013-03-29 20:33:00,
2013-03-29 15:42:00,53.0,48.0,30.24,East,86,0.0,2.0,83,0.00,,,0.11,,2013-03-29 20:42:00,
2013-03-29 15:52:00,53.0,48.0,30.24,ESE,118,0.0,2.0,83,0.00,,,0.11,,2013-03-29 20:52:00,
2013-03-29 16:02:00,53.0,48.0,30.24,ENE,75,0.0,3.0,82,0.00,,,0.11,,2013-03-29 21:02:00,
2013-03-29 16:12:00,53.0,48.0,30.24,ENE,75,0.0,3.0,82,0.00,,,0.11,,2013-03-29 21:12:00,
2013-03-29 16:22:00,53.0,48.0,30.24,ENE,73,1.0,3.0,82,0.00,,,0.11,,2013-03-29 21:22:00,
2013-03-29 16:33:00,53.0,48.0,30.23,NE,36,0.0,3.0,83,0.00,,,0.11,,2013-03-29 21:33:00,
2013-03-29 16:42:00,53.0,48.0,30.23,NE,36,0.0,3.0,83,0.00,,,0.11,,2013-03-29 21:42:00,
2013-03-29 16:53:00,53.0,48.0,30.23,ENE,63,1.0,4.0,84,0.00,,,0.11,,2013-03-29 21:53:00,
2013-03-29 17:03:00,52.0,47.0,30.23,ENE,61,1.0,4.0,84,0.00,,,0.11,,2013-03-29 22:03:00,
2013-03-29 17:12:00,52.0,47.0,30.23,ENE,61,1.0,4.0,84,0.00,,,0.11,,2013-03-29 22:12:00,
2013-03-29 17:22:00,52.0,48.0,30.23,ENE,59,2.0,4.0,85,0.00,,,0.11,,2013-03-29 22:22:00,
2013-03-29 17:33:00,52.0,48.0,30.23,NE,38,1.0,4.0,86,0.00,,,0.11,,2013-03-29 22:33:00,
2013-03-29 17:42:00,52.0,48.0,30.23,NE,38,1.0,4.0,86,0.00,,,0.11,,2013-03-29 22:42:00,
2013-03-29 17:54:00,52.0,48.0,30.24,NE,53,1.0,4.0,86,0.00,,,0.11,,2013-03-29 22:54:00,
2013-03-29 18:02:00,52.0,48.0,30.24,ENE,59,1.0,3.0,86,0.00,,,0.11,,2013-03-29 23:02:00,
2013-03-29 18:12:00,52.0,48.0,30.24,ENE,59,1.0,3.0,86,0.00,,,0.11,,2013-03-29 23:12:00,
2013-03-29 18:22:00,52.0,48.0,30.24,NE,49,1.0,3.0,86,0.00,,,0.11,,2013-03-29 23:22:00,
2013-03-29 18:32:00,51.0,47.0,30.24,ENE,65,2.0,4.0,86,0.00,,,0.11,,2013-03-29 23:32:00,
2013-03-29 18:42:00,51.0,47.0,30.24,ENE,65,2.0,4.0,86,0.00,,,0.11,,2013-03-29 23:42:00,
2013-03-29 18:52:00,51.0,47.0,30.25,ENE,64,0.0,4.0,87,0.00,,,0.11,,2013-03-29 23:52:00,
2013-03-29 19:03:00,51.0,47.0,30.25,ENE,61,1.0,4.0,87,0.00,,,0.11,,2013-03-30 00:03:00,
2013-03-29 19:12:00,51.0,47.0,30.25,ENE,61,1.0,4.0,87,0.00,,,0.11,,2013-03-30 00:12:00,
2013-03-29 19:22:00,51.0,48.0,30.25,ENE,72,1.0,3.0,88,0.00,,,0.11,,2013-03-30 00:22:00,
2013-03-29 19:32:00,51.0,48.0,30.25,East,82,1.0,3.0,88,0.00,,,0.11,,2013-03-30 00:32:00,
2013-03-29 19:42:00,51.0,48.0,30.25,East,82,1.0,3.0,88,0.00,,,0.11,,2013-03-30 00:42:00,
2013-03-29 19:53:00,50.0,47.0,30.25,NE,55,0.0,3.0,88,0.00,,,0.11,,2013-03-30 00:53:00,
2013-03-29 20:02:00,50.0,47.0,30.25,ENE,68,0.0,4.0,89,0.00,,,0.11,,2013-03-30 01:02:00,
2013-03-29 20:12:00,50.0,47.0,30.25,ENE,68,0.0,4.0,89,0.00,,,0.11,,2013-03-30 01:12:00,
2013-03-29 20:22:00,50.0,47.0,30.26,ENE,57,0.0,3.0,89,0.00,,,0.11,,2013-03-30 01:22:00,
2013-03-29 20:32:00,50.0,47.0,30.26,NE,49,0.0,3.0,90,0.00,,,0.11,,2013-03-30 01:32:00,
2013-03-29 20:42:00,50.0,47.0,30.26,NE,49,0.0,3.0,90,0.00,,,0.11,,2013-03-30 01:42:00,
2013-03-29 20:53:00,49.0,46.0,30.26,NE,51,0.0,2.0,91,0.00,,,0.11,,2013-03-30 01:53:00,
2013-03-29 21:02:00,49.0,46.0,30.26,NE,51,0.0,2.0,91,0.00,,,0.11,,2013-03-30 02:02:00,
2013-03-29 21:12:00,49.0,46.0,30.26,NE,51,0.0,2.0,91,0.00,,,0.11,,2013-03-30 02:12:00,
2013-03-29 21:22:00,49.0,46.0,30.27,NE,51,0.0,2.0,91,0.00,,,0.11,,2013-03-30 02:22:00,
2013-03-29 21:32:00,49.0,46.0,30.27,NE,51,0.0,2.0,91,0.00,,,0.11,,2013-03-30 02:32:00,
2013-03-29 21:42:00,49.0,46.0,30.27,NE,51,0.0,2.0,91,0.00,,,0.11,,2013-03-30 02:42:00,
2013-03-29 21:53:00,49.0,46.0,30.27,NE,51,0.0,1.0,91,0.00,,,0.11,,2013-03-30 02:53:00,
2013-03-29 22:02:00,49.0,46.0,30.27,NE,51,0.0,1.0,91,0.00,,,0.11,,2013-03-30 03:02:00,
2013-03-29 22:12:00,49.0,46.0,30.27,NE,51,0.0,2.0,91,0.00,,,0.11,,2013-03-30 03:12:00,
2013-03-29 22:22:00,49.0,46.0,30.27,NE,51,0.0,2.0,91,0.00,,,0.11,,2013-03-30 03:22:00,
2013-03-29 22:33:00,49.0,46.0,30.27,NE,51,0.0,2.0,91,0.00,,,0.11,,2013-03-30 03:33:00,
2013-03-29 22:43:00,49.0,46.0,30.27,NE,51,0.0,2.0,91,0.00,,,0.11,,2013-03-30 03:43:00,
2013-03-29 22:53:00,48.0,45.0,30.27,NE,51,0.0,2.0,91,0.00,,,0.11,,2013-03-30 03:53:00,
2013-03-29 23:02:00,48.0,45.0,30.26,East,79,0.0,2.0,91,0.00,,,0.11,,2013-03-30 04:02:00,
2013-03-29 23:12:00,48.0,45.0,30.26,East,79,0.0,2.0,91,0.00,,,0.11,,2013-03-30 04:12:00,
2013-03-29 23:23:00,47.0,45.0,30.26,East,79,0.0,0.0,91,0.00,,,0.11,,2013-03-30 04:23:00,
2013-03-29 23:32:00,46.0,44.0,30.26,East,79,0.0,0.0,91,0.00,,,0.11,,2013-03-30 04:32:00,
2013-03-29 23:42:00,46.0,44.0,30.26,East,79,0.0,0.0,91,0.00,,,0.11,,2013-03-30 04:42:00,
2013-03-29 23:53:00,45.0,43.0,30.25,East,79,0.0,0.0,91,0.00,,,0.11,,2013-03-30 04:53:00,